Regional Weather Roundup
Issued by NWS

Home | Current Version | Previous Version | Text Only | Print | Product List | Glossary Off
Versions: 1 2 3 4 5 6 7 8 9 10 11 12 13 14 15 16 17 18 19 20 21 22 23 24 25 26 27 28 29 30 31 32 33 34 35 36 37 38 39 40 41 42 43 44 45 46 47 48 49 50

086
ASUS43 KMKX 212211
RWRWI

WISCONSIN REGIONAL WEATHER ROUNDUP
NATIONAL WEATHER SERVICE MILWAUKEE/SULLIVAN WI
400 PM CST TUE NOV 21 2017

NOTE: "FAIR" INDICATES FEW OR NO CLOUDS BELOW 12,000 FEET WITH NO
SIGNIFICANT WEATHER AND/OR OBSTRUCTIONS TO VISIBILITY.

WIZ001-002-006>008-014>016-023>028-212300-
NORTHWEST WISCONSIN

CITY           SKY/WX    TMP DP  RH WIND       PRES   REMARKS
SUPERIOR ARPT  CLEAR     25  10  52 NW14      30.16R WCI  13
ASHLAND        MOCLDY    24   9  52 NW14G21   30.11R WCI  12
HAYWARD        CLEAR     26   7  44 NW8       30.11R WCI  18
SIREN          PTCLDY    28   8  42 NW14      30.15R WCI  16
CUMBERLAND     CLEAR     27   7  43 NW16      30.12R WCI  14
RICE LAKE      CLEAR     28   8  44 NW10G22   30.15R WCI  18
CHETEK         CLEAR     27  10  49 NW7       30.13R WCI  19
LADYSMITH      CLEAR     27  10  49 NW10G21   30.10R WCI  17
EAU CLAIRE     CLEAR     28  10  46 NW14      30.14R WCI  17
MENOMONIE      CLEAR     29  11  46 W15       30.15R WCI  18
NEW RICHMOND   CLEAR     28   9  44 NW13G22   30.16S WCI  17
OSCEOLA        CLEAR     29   9  44 NW12      30.20S WCI  19
$$

WIZ003>005-009-010-017-018-212300-
NORTH CENTRAL WISCONSIN

CITY           SKY/WX    TMP DP  RH WIND       PRES   REMARKS
MANITOWISH WTR LGT SNOW  19  13  79 NW9       30.02R WCI   7
ARBOR VITAE    FLURRIES  22  15  74 NW9G20    30.02R WCI  11
WOODRUFF       FLURRIES  22  15  74 NW9G20    30.02R WCI  11
RHINELANDER    CLOUDY    21  11  65 NW14G23   30.02R WCI   8
EAGLE RIVER    FLURRIES  19  11  69 N12G21    30.00R WCI   7
LAND O LAKES   LGT SNOW  19  13  76 NW8G17    30.01R WCI   9
PHILLIPS       PTCLDY    22  10  57 N8        30.04R WCI  13
TOMAHAWK       PTCLDY    21  10  61 NW12G20   30.04R WCI   9
MEDFORD        CLEAR     23  10  57 NW14G20   30.04R WCI  11
MERRILL        CLOUDY    24  12  60 NW14G20   30.04R WCI  12
$$

WIZ029-030-035-036-043>047-212300-
CENTRAL WISCONSIN

CITY           SKY/WX    TMP DP  RH WIND       PRES   REMARKS
WAUSAU         CLOUDY    25  12  58 NW14G25   30.02R WCI  13
MOSINEE        CLOUDY    25  14  63 NW20G25   30.04R WCI  11
MARSHFIELD     PTCLDY    25  11  55 NW18G24   30.04R WCI  11
STEVENS POINT  CLOUDY    25  11  55 NW13G24   30.04R WCI  14
WAUPACA        MOCLDY    31  13  47 NW16G29   30.03R WCI  20
WAUTOMA        PTCLDY    28  14  55 NW15      30.05R WCI  16
WISC RAPIDS    CLOUDY    28  12  51 NW16G25   30.06R WCI  16
CAMP DOUGLAS   PTCLDY    28  12  50 NW18      30.07R WCI  16
$$

WIZ011>013-019>022-031-037>040-048>050-212300-
NORTHEAST WISCONSIN

CITY           SKY/WX    TMP DP  RH WIND       PRES   REMARKS
ANTIGO         CLOUDY    22  12  64 N18G24    29.99R WCI   8
SHAWANO        CLOUDY    31  14  51 NW9G25    30.00R WCI  22
OCONTO         CLOUDY    30  15  53 NW10      29.99R WCI  21
STURGEON BAY   CLOUDY    30  17  58 NW15G23   29.97R WCI  19
GREEN BAY      CLOUDY    31  17  56 NW18      29.99R WCI  19
MANITOWOC      CLOUDY    31  16  54 NW20      29.99R WCI  19
APPLETON       MOCLDY    30   9  40 NW17G24   29.98R WCI  18
CLINTONVILLE   CLOUDY    28  10  47 N15G21    30.02R WCI  17
OSHKOSH        PTCLDY    29  13  51 NW12G21   30.00R WCI  19
$$

WIZ032>034-041-042-053>061-212300-
SOUTHWEST WISCONSIN

CITY           SKY/WX    TMP DP  RH WIND       PRES   REMARKS
LA CROSSE      CLEAR     30  14  51 NW14      30.14R WCI  19
SPARTA         PTCLDY    29  14  54 NW13G21   30.12R WCI  18
VIROQUA        PTCLDY    28  16  61 NW20      30.08R WCI  15
BOSCOBEL       CLEAR     32  13  45 NW16G23   30.12R WCI  21
PRAIRIE DU CHI CLEAR     31  12  45 NW12G22   30.13R WCI  22
PLATTEVILLE    CLEAR     32  18  57 NW9G17    30.08R WCI  24
$$

WIZ056-057-062-063-064-067-068-212300-
SOUTH CENTRAL WISCONSIN

CITY           SKY/WX    TMP DP  RH WIND       PRES   REMARKS
REEDSBURG      CLEAR     29  12  50 NW14G21   30.06R WCI  18
BARABOO/DELLS  CLEAR     29  11  47 NW13G18   30.05R WCI  19
LONE ROCK      CLEAR     31  14  49 NW16G23   30.09R WCI  20
MINERAL POINT  CLEAR     32  18  55 NW15G24   30.06R WCI  22
MADISON        PTCLDY    29  13  51 NW16G29   30.04R WCI  17
MIDDLETON      CLEAR     31  16  53 NW18      30.05R WCI  19
WATERTOWN      CLOUDY    30  14  52 NW12G17   30.03R WCI  20
MONROE         PTCLDY    32  14  47 NW12G22   30.03R WCI  23
JANESVILLE     PTCLDY    36  18  48 NW15G21   30.01R WCI  26
$$

WIZ051-052-058>065-066-070>072-212300-
SOUTHEAST WISCONSIN

CITY           SKY/WX    TMP DP  RH WIND       PRES   REMARKS
MILWAUKEE      MOCLDY    33  16  49 NW16G26   30.00R WCI  23
WAUKESHA       CLOUDY    28  14  54 NW16G26   30.01R WCI  17
MILWAUKEE/TIMM CLOUDY    30  12  47 NW22      30.01R WCI  17
RACINE         CLOUDY    33  16  49 N17G28    30.01R WCI  22
BURLINGTON     PTCLDY    34  20  57 NW16G24   30.01R WCI  24
KENOSHA        MOCLDY    34  16  47 NW17G25   30.00R WCI  23
FOND DU LAC    PTCLDY    30  12  47 NW16G23   30.01R WCI  19
SHEBOYGAN      CLOUDY    30  15  53 NW21G26   29.98R WCI  17
WEST BEND      CLOUDY    30  14  51 NW17G26   29.99R WCI  18
JUNEAU         CLEAR     28  13  53 NW16G22   30.03R WCI  16
$$

LSZ147-162-212300-
LAKE SUPERIOR

STATION/POSITION TIME  TEMP    WIND        PRES    WAVE
                       AIR SEA DIR/SP/G            HT/PER
                 (UTC) (F)     (DEG/KT/KT) (MB)    (FT/S)
DEVILS ISLAND    2200   23     300/ 26/ 29 1020.8R
SAXON HARBOR     2130   26     310/ 16/ 21 1019.0R
$$

LMZ867-665-643>646-212300-
LAKE MICHIGAN

STATION/POSITION TIME  TEMP    WIND        PRES    WAVE
                       AIR SEA DIR/SP/G            HT/PER
                 (UTC) (F)     (DEG/KT/KT) (MB)    (FT/S)
N MID LAKE BUOY  2150   31 47  300/ 23/ 29 1014.0R   6/ 5
NORTHPORT PIER   2144   31     310/ 19     1013.9R
KEWAUNEE LAKESHO 2142   31     310/ 11/ 20 1013.8R
SHEBOYGAN LAKESH 2200   31     310/ 19/ 23 1015.9R
PORT WASHINGTON  2130   32     310/ 10/ 16 1016.3R
MILWAUKEE LAKESH 2150   32     310/ 13/ 18   N/A
S MID LAKE BUOY  2150   36 47  340/ 21/ 27 1014.7R   6/ 6
KENOSHA   LAKESH 2200   34     310/ 18/ 25 1015.9
$$

TC  - TEMPERATURE IN CELSIUS
VSB - VISIBILITY IN STATUTE MILES
WCI - WIND CHILL INDEX
HX  - HEAT INDEX





USA.gov is the U.S. government's official web portal to all federal, state and local government web resources and services.